Tracking 19817 objects as of 17-Aug-2019
HD Live streaming from Space Station
objects crossing your sky now

COSMOS 2251 DEB

Track COSMOS 2251 DEB now!
10-day predictions


NORAD ID: 37334
Int'l Code: 1993-036BLA
Perigee: 457.9 km
Apogee: 486.3 km
Inclination: 74.0 °
Period: 93.9 minutes
Semi major axis: 6843 km
RCS: 0.0066 m2 (small)
Launch date: June 16, 1993
Source: Commonwealth of Independent States (former USSR) (CIS)
Launch site: PLESETSK MISSILE AND SPACE COMPLEX (PKMTR)

Note: This is SATELLITE DEBRIS
aabbcc
Your satellite tracking list
Your tracking list is empty




NASA's NSSDC Master Catalog

Two Line Element Set (TLE):
1 37334U 93036BLA 19228.53807189 +.00007771 +00000-0 +23878-3 0  9997
2 37334 074.0074 275.0246 0020688 233.5816 126.3481 15.33640238414663
Source of the keplerian elements: AFSPC